Volver al catálogo

STARLINK-11494

ActivoComunicacionesVLEO
NORAD 62272·PAYLOAD·🇺🇸 United States

Lanzado Dec 8, 2024 desde Cape Canaveral Space Force Station

Loading…

Próximos Pases (próximas 24 horas)

TLE

ActualizadoSource: CelesTrak SupGP

Época: Sep 14, 2026, 21:12 UTC

1 62272C 24237F   26257.88381944  .00024285  00000+0  18855-3 0  2571
2 62272  43.0008 356.4718 0001679 280.5582 117.1881 15.70834586    18

Sigue STARLINK-11494 en tiempo real con AllMySat

Download on the App Store